[[{"header":{"parameterUnit":"m.s-1","parameterCategory":1,"la1":30.2991,"la2":30.254,"lo1":-89.0895,"lo2":-89.0444,"dy":0.0017,"dx":0.0017,"nx":28,"ny":28,"refTime":"2025-08-03T09:00:00:Z","depth":0,"parameterNumber":2,"parameterNumberName":"U-component_of_WINDS"},"data":[0,0,0,0,0,0,0,0,0,0,0,0,0,0,0,0,0,0,0,0,0,0,0,0,0,0,0,0,0,0,0,0,0,0,0,0,0,0,0,0,0,0,0,0,0,0,0,0,0,0,0,0,0,0,0,0,0,0,0.383,0.383,0,0.3839,0.3839,0.3839,0.3874,0.3875,0.3876,0.3876,0.3884,0.3884,0.3883,0,0,0,0,0,0,0,0,0,0,0,0,0,0.3844,0.3844,0.383,0.383,0.383,0.3839,0.3839,0.3839,0.3874,0.3875,0.3876,0.3877,0.3884,0.3884,0.3883,0,0,0,0,0,0,0,0,0,0,0,0,0,0.3844,0.3844,0.383,0.3849,0.3851,0.3839,0.3839,0.3839,0.3874,0.3875,0.3876,0.3877,0.3885,0.3884,0.3883,0.3853,0,0,0.388,0.388,0,0,0,0,0,0,0,0,0.3844,0.3843,0.3846,0.3847,0.3849,0.3857,0.3847,0.3844,0.3873,0.3865,0.3876,0.3878,0.3874,0.3874,0.3873,0.3854,0.3854,0.388,0.388,0.3879,0.3879,0,0,0,0,0,0,0,0.3844,0.3843,0.3834,0.3846,0.3848,0.3857,0.3858,0.3846,0.3862,0.3866,0.3868,0.3869,0.3875,0.3874,0.3873,0.3854,0.388,0.388,0.3879,0.3879,0.3813,0.3812,0,0,0,0,0,0,0.3841,0.3843,0.3833,0.3834,0.385,0.3856,0.3857,0.3853,0.3863,0.3865,0.3868,0.387,0.3874,0.3874,0.3874,0.384,0.388,0.3879,0.3878,0.3814,0.3812,0.3811,0,0,0,0,0,0,0.3842,0.384,0.3833,0.3839,0.3839,0.3854,0.3849,0.3853,0.3851,0.3864,0.3867,0.3863,0.3875,0.3875,0.3859,0.3841,0.3878,0.3878,0.3815,0.3814,0.3812,0.3772,0,0,0,0,0,0,0.3842,0.384,0.3829,0.3839,0.3838,0.3817,0.3848,0.3852,0.385,0.3853,0.3861,0.3863,0.3876,0.386,0.3858,0.384,0.3877,0.3817,0.3815,0.3812,0.3775,0.3769,0.3764,0,0,0,0,0,0.3842,0.3817,0.3828,0.3826,0.3825,0.3816,0.3816,0.3832,0.3848,0.3837,0.3846,0.3863,0.3844,0.3858,0.3856,0.3838,0.3818,0.3815,0.3813,0.3778,0.377,0.3764,0,0,0,0,0,0,0.3803,0.3818,0.3831,0.3808,0.381,0.3822,0.3808,0.3823,0.3821,0.3824,0.3844,0.3846,0.3826,0.3831,0.3846,0.3811,0.3834,0.3831,0.3808,0.3801,0.3796,0.3794,0.3876,0,0,0,0,0,0.3792,0.3784,0.3798,0.3776,0.3777,0.3792,0.3789,0.3801,0.3805,0.3806,0.3813,0.3816,0.3811,0.3807,0.3802,0.3777,0.3779,0.3764,0.3758,0.3754,0.375,0.3738,0.3731,0.3802,0.3802,0.3802,0,0,0.3768,0.3776,0.3769,0.3768,0.3772,0.3763,0.3793,0.3782,0.3776,0.3804,0.3789,0.3795,0.3799,0.3778,0.377,0.3782,0.3732,0.375,0.3746,0.3745,0.3734,0.3727,0.3721,0.38,0.38,0.3801,0,0,0.3721,0.3726,0.3708,0.3712,0.3717,0.3728,0.3724,0.3734,0.3739,0.3725,0.3746,0.374,0.373,0.3732,0.3732,0.3688,0.3704,0.3686,0.3657,0.3645,0.3639,0.3634,0.3618,0.3612,0.3683,0.3683,0.3683,0,0.369,0.3678,0.3697,0.3686,0.3685,0.3712,0.3695,0.3697,0.37,0.3699,0.3713,0.3702,0.3707,0.3688,0.3677,0.3676,0.3672,0.3684,0.3638,0.3634,0.3629,0.3614,0.3608,0.3681,0.3681,0.3681,0.3681,0,0.3641,0.3632,0.3617,0.3621,0.3619,0.3604,0.3622,0.3618,0.3631,0.364,0.3626,0.3633,0.3631,0.3628,0.3641,0.3611,0.3618,0.3635,0.3658,0.362,0.3606,0.3601,0.3678,0.3678,0.3679,0.368,0,0,0.3565,0.3582,0.3576,0.3579,0.3588,0.3581,0.3569,0.3568,0.3564,0.3566,0.3556,0.3549,0.3565,0.3565,0.3578,0.3568,0.3533,0.3586,0.3587,0.3575,0.35,0.3486,0.3479,0.3544,0.3543,0.3542,0.35,0,0.3519,0.3498,0.3517,0.3492,0.3485,0.3512,0.3501,0.3506,0.3515,0.3511,0.3521,0.3515,0.3537,0.3538,0.3529,0.3539,0.3518,0.3542,0.3535,0.3534,0.3531,0.3472,0.3457,0.3416,0.3495,0.3494,0.3493,0,0.3462,0.3463,0.3438,0.345,0.3448,0.3437,0.3439,0.3434,0.3441,0.3448,0.345,0.3467,0.3456,0.3481,0.3466,0.3483,0.3481,0.3486,0.3485,0.3483,0.351,0.3468,0.3404,0.3397,0.3485,0.3485,0.3486,0,0.3409,0.3404,0.3388,0.339,0.3404,0.3396,0.3402,0.341,0.3409,0.341,0.341,0.341,0.3409,0.3409,0.3426,0.3443,0.341,0.3436,0.3416,0.3415,0.3406,0.3406,0.3339,0.3407,0.3407,0.3407,0.3407,0,0.3354,0.3338,0.3365,0.3355,0.3338,0.336,0.3342,0.3351,0.3358,0.3351,0.3375,0.3368,0.3392,0.3387,0.3401,0.3387,0.3387,0.3393,0.3396,0.339,0.3389,0.3388,0.339,0.3406,0.3406,0.3406,0.3407,0,0.3291,0.3308,0.3293,0.3309,0.3313,0.3299,0.3313,0.3305,0.3317,0.3308,0.3307,0.3326,0.3322,0.334,0.3339,0.3348,0.3327,0.3336,0.3325,0.3327,0.3305,0.3307,0.3234,0.3226,0.33,0.33,0.3299,0,0.3254,0.3242,0.3257,0.3254,0.3259,0.3254,0.3253,0.3275,0.3273,0.3282,0.3273,0.3271,0.3271,0.3264,0.3278,0.3278,0.3286,0.3261,0.3286,0.328,0.3285,0.3285,0.3284,0.3255,0.3254,0.3253,0.3252,0,0.3186,0.3196,0.3194,0.3196,0.3195,0.3197,0.3201,0.3197,0.3221,0.3218,0.3215,0.3215,0.3216,0.3214,0.3217,0.3223,0.3242,0.3245,0.324,0.3232,0.3226,0.3228,0.3309,0.3246,0.3246,0.3247,0.3247,0.3248,0.3134,0.3125,0.3135,0.3132,0.3138,0.3142,0.3135,0.3147,0.3145,0.3147,0.3161,0.3155,0.3165,0.3171,0.3176,0.3172,0.3184,0.3177,0.3175,0.3173,0.3169,0.3228,0.3173,0.3173,0.3173,0.3174,0.3174,0,0.3067,0.3075,0.3073,0.3078,0.3076,0.3096,0.3102,0.3099,0.3094,0.3101,0.3101,0.3098,0.3097,0.3112,0.3113,0.3108,0.3116,0.3107,0.3107,0.3108,0.3158,0.3162,0.31,0.31,0.31,0.31,0.31,0.31,0.3032,0.3018,0.3029,0.3019,0.3027,0.3022,0.3024,0.3028,0.3034,0.303,0.3029,0.3039,0.305,0.3053,0.3053,0.3058,0.3056,0.3044,0.3051,0.3097,0.3104,0.3111,0.3115,0.3044,0.3044,0.3002,0.3001,0.3001]},{"header":{"parameterUnit":"m.s-1","parameterCategory":1,"la1":30.2991,"la2":30.254,"lo1":-89.0895,"lo2":-89.0444,"dy":0.0017,"dx":0.0017,"nx":28,"ny":28,"refTime":"2025-08-03T09:00:00:Z","depth":0,"parameterNumber":3,"parameterNumberName":"V-component_of_WINDS"},"data":[0,0,0,0,0,0,0,0,0,0,0,0,0,0,0,0,0,0,0,0,0,0,0,0,0,0,0,0,0,0,0,0,0,0,0,0,0,0,0,0,0,0,0,0,0,0,0,0,0,0,0,0,0,0,0,0,0,0,-3.0226,-3.0226,0,-3.0232,-3.0232,-3.0233,-3.0172,-3.017,-3.0169,-3.0167,-3.0173,-3.0174,-3.0176,0,0,0,0,0,0,0,0,0,0,0,0,0,-3.016,-3.0161,-3.0226,-3.0226,-3.0226,-3.0232,-3.0232,-3.0233,-3.0172,-3.017,-3.0168,-3.0166,-3.0172,-3.0174,-3.0176,0,0,0,0,0,0,0,0,0,0,0,0,0,-3.0179,-3.0162,-3.0226,-3.0197,-3.0194,-3.0232,-3.0232,-3.0233,-3.0173,-3.017,-3.0168,-3.0165,-3.0172,-3.0174,-3.0177,-3.0243,0,0,-3.0184,-3.0186,0,0,0,0,0,0,0,0,-3.0178,-3.0182,-3.0201,-3.0199,-3.0196,-3.0199,-3.0211,-3.0236,-3.0173,-3.0181,-3.0167,-3.0164,-3.0183,-3.0185,-3.0192,-3.0243,-3.0243,-3.0185,-3.0186,-3.0187,-3.0188,0,0,0,0,0,0,0,-3.0177,-3.0181,-3.0228,-3.0201,-3.0198,-3.0183,-3.0183,-3.0216,-3.0196,-3.018,-3.0176,-3.0177,-3.0182,-3.0189,-3.0191,-3.0243,-3.0185,-3.0187,-3.0188,-3.0189,-3.0348,-3.0351,0,0,0,0,0,0,-3.018,-3.0181,-3.0228,-3.0229,-3.0181,-3.0186,-3.0186,-3.02,-3.0196,-3.0192,-3.0179,-3.0174,-3.0186,-3.0188,-3.0191,-3.0267,-3.0187,-3.019,-3.0191,-3.0346,-3.0349,-3.0352,0,0,0,0,0,0,-3.0179,-3.0185,-3.0228,-3.0203,-3.0208,-3.019,-3.0206,-3.0202,-3.0209,-3.0195,-3.0191,-3.0191,-3.0184,-3.0188,-3.023,-3.0267,-3.0191,-3.0193,-3.0342,-3.0347,-3.035,-3.0421,0,0,0,0,0,0,-3.0177,-3.0185,-3.021,-3.0204,-3.0209,-3.0267,-3.0209,-3.0204,-3.0214,-3.0208,-3.0205,-3.0202,-3.0182,-3.0227,-3.0233,-3.0269,-3.0195,-3.0339,-3.0344,-3.0349,-3.0416,-3.0427,-3.0437,0,0,0,0,0,-3.0175,-3.023,-3.0212,-3.0218,-3.0241,-3.027,-3.0272,-3.0249,-3.0217,-3.0242,-3.0233,-3.0202,-3.0262,-3.0232,-3.0238,-3.0276,-3.0337,-3.0343,-3.0349,-3.0411,-3.0425,-3.0437,0,0,0,0,0,0,-3.024,-3.0228,-3.0208,-3.0263,-3.0268,-3.0259,-3.029,-3.0265,-3.0279,-3.0272,-3.0242,-3.0242,-3.0289,-3.0287,-3.0253,-3.0339,-3.0294,-3.0301,-3.0339,-3.0352,-3.0363,-3.0362,-3.0197,0,0,0,0,0,-3.0261,-3.0286,-3.0274,-3.0323,-3.0327,-3.0308,-3.032,-3.0302,-3.0305,-3.0307,-3.0301,-3.0305,-3.0325,-3.0338,-3.0356,-3.0415,-3.0413,-3.0444,-3.0455,-3.0464,-3.0471,-3.0501,-3.0514,-3.0372,-3.0372,-3.0371,0,0,-3.0304,-3.03,-3.0318,-3.0336,-3.0338,-3.0364,-3.031,-3.034,-3.0359,-3.0311,-3.0351,-3.0347,-3.035,-3.0401,-3.0423,-3.04,-3.051,-3.0472,-3.0479,-3.0481,-3.0508,-3.0522,-3.0534,-3.0376,-3.0375,-3.0374,0,0,-3.0395,-3.0396,-3.0436,-3.0439,-3.0442,-3.0429,-3.0439,-3.0435,-3.043,-3.0469,-3.0434,-3.0456,-3.049,-3.0494,-3.05,-3.0592,-3.0564,-3.0599,-3.0655,-3.0685,-3.0696,-3.0706,-3.0738,-3.075,-3.0606,-3.0606,-3.0606,0,-3.0448,-3.0486,-3.046,-3.0493,-3.0501,-3.046,-3.05,-3.0504,-3.0513,-3.0519,-3.0494,-3.0536,-3.0535,-3.0586,-3.0608,-3.0615,-3.0625,-3.0599,-3.0697,-3.0706,-3.0715,-3.0745,-3.0758,-3.061,-3.0609,-3.0609,-3.0609,0,-3.055,-3.0577,-3.061,-3.0619,-3.0632,-3.0668,-3.0647,-3.0663,-3.0644,-3.0633,-3.0674,-3.0671,-3.0687,-3.0698,-3.0679,-3.0746,-3.0731,-3.0702,-3.0656,-3.0733,-3.0761,-3.0773,-3.0616,-3.0614,-3.0613,-3.0612,0,0,-3.0683,-3.0677,-3.069,-3.0693,-3.0693,-3.0713,-3.0747,-3.0763,-3.0776,-3.0784,-3.0811,-3.0841,-3.0814,-3.0821,-3.0802,-3.0829,-3.0901,-3.0795,-3.0795,-3.0814,-3.0973,-3.0995,-3.1009,-3.0883,-3.0885,-3.0886,-3.0973,0,-3.0771,-3.0829,-3.0807,-3.0867,-3.0891,-3.0851,-3.0881,-3.0884,-3.0875,-3.0894,-3.0884,-3.0906,-3.0868,-3.0872,-3.0897,-3.0887,-3.0932,-3.0881,-3.0907,-3.0908,-3.0907,-3.1024,-3.1047,-3.1129,-3.0984,-3.0986,-3.0987,0,-3.0882,-3.0894,-3.0956,-3.0951,-3.096,-3.0987,-3.0999,-3.1018,-3.102,-3.1012,-3.102,-3.0996,-3.1028,-3.0983,-3.1027,-3.0992,-3.1002,-3.0999,-3.1001,-3.1002,-3.0952,-3.1027,-3.1155,-3.1167,-3.1004,-3.1003,-3.1001,0,-3.0971,-3.1003,-3.1043,-3.1048,-3.1044,-3.1063,-3.1062,-3.1062,-3.1073,-3.1083,-3.109,-3.1104,-3.1112,-3.1123,-3.1103,-3.1072,-3.115,-3.1103,-3.1143,-3.1144,-3.1161,-3.116,-3.1291,-3.1169,-3.1168,-3.1168,-3.1168,0,-3.1072,-3.1111,-3.1083,-3.1109,-3.1151,-3.1125,-3.1168,-3.1162,-3.1163,-3.1186,-3.1153,-3.1175,-3.1147,-3.1167,-3.1151,-3.1189,-3.1193,-3.1187,-3.1182,-3.119,-3.119,-3.1195,-3.1188,-3.1171,-3.1171,-3.117,-3.1169,0,-3.1179,-3.1162,-3.1204,-3.1196,-3.1195,-3.1227,-3.122,-3.1242,-3.1231,-3.1261,-3.1266,-3.1249,-3.127,-3.1251,-3.1272,-3.1261,-3.1312,-3.1299,-3.1311,-3.1307,-3.1348,-3.1345,-3.1486,-3.1503,-3.1371,-3.1372,-3.1373,0,-3.1244,-3.1273,-3.1268,-3.1281,-3.1283,-3.1304,-3.1315,-3.129,-3.1302,-3.1307,-3.1329,-3.1347,-3.136,-3.1396,-3.1385,-3.14,-3.1387,-3.1436,-3.1389,-3.1396,-3.1387,-3.1385,-3.1388,-3.1445,-3.1447,-3.1448,-3.1449,0,-3.1361,-3.1351,-3.1367,-3.1381,-3.1394,-3.1404,-3.1411,-3.1423,-3.1398,-3.1413,-3.1434,-3.1445,-3.1465,-3.1484,-3.1495,-3.1494,-3.1467,-3.1464,-3.1474,-3.1481,-3.1486,-3.1483,-3.1336,-3.1461,-3.1459,-3.1459,-3.1458,-3.1457,-3.1448,-3.1471,-3.1472,-3.1491,-3.1494,-3.1501,-3.1521,-3.1513,-3.153,-3.1545,-3.1529,-3.1555,-3.1556,-3.1569,-3.1571,-3.159,-3.157,-3.1584,-3.1588,-3.1592,-3.1597,-3.1484,-3.1592,-3.1592,-3.1592,-3.1591,-3.1591,0,-3.1562,-3.156,-3.1578,-3.1589,-3.1604,-3.1578,-3.1584,-3.1598,-3.1621,-3.1624,-3.1638,-3.1662,-3.168,-3.167,-3.1685,-3.1703,-3.1691,-3.1707,-3.1705,-3.1705,-3.1615,-3.1605,-3.1717,-3.1717,-3.1717,-3.1717,-3.1717,-3.1716,-3.1623,-3.1662,-3.1652,-3.1691,-3.1689,-3.1714,-3.1719,-3.1725,-3.1728,-3.1756,-3.177,-3.1764,-3.1762,-3.1777,-3.1792,-3.1788,-3.1795,-3.1816,-3.1808,-3.1724,-3.1712,-3.17,-3.169,-3.1818,-3.1818,-3.1897,-3.1897,-3.1898]}]]